Manor / Austin Executive, TX

3:36 PM CST on December 06, 2019 (GMT -0600)
Manor / Austin Executive

Weather History for KEDC - October, 2019

Change the Weather History Date:

Thursday, October 17, 2019

  Actual Average (KAUS) Record (KAUS)
Temperature  
Mean Temperature 64 °F -  
Max Temperature 75 °F 78 °F 97 °F (1993)
Min Temperature 53 °F 56 °F 35 °F (2001)
Degree Days  
Heating Degree Days 1    
Growing Degree Days 14 (Base 50)    
Moisture  
Dew Point 42 °F    
Average Humidity 53    
Maximum Humidity 72    
Minimum Humidity 22    
Precipitation  
Precipitation 0.00 in - - ()
Sea Level Pressure  
Sea Level Pressure 30.02 in    
Wind  
Wind Speed 5 mph (NE)    
Max Wind Speed 9 mph    
Max Gust Speed -    
Visibility 10 miles    
Events      
Averages and records for this station are not official NWS values.
T = Trace of Precipitation, MM = Missing Value Source: NWS Daily Summary

Daily Weather History Graph

Daily Weather History Graph

Search for Another Location

Airport or City:

Astronomy

Oct. 17, 2019 Rise Set
Actual Time 7:33 AM CDT 6:57 PM CDT
Civil Twilight 7:09 AM CDT 7:21 PM CDT
Nautical Twilight 6:41 AM CDT 7:49 PM CDT
Astronomical Twilight 6:13 AM CDT 8:17 PM CDT
Moon 9:43 PM CDT (10/17) 10:54 AM CDT (10/17)
Length of Visible Light 12h 11m
Length of Day
11h 23m
Waning Gibbous, 86% of the Moon is Illuminated
Oct 17
Waning Gibbous
Oct 21
Last Quarter
Oct 27
New
Nov 4
First Quarter
Nov 12
Full

Hourly Weather History & Observations

Time (CDT) Temp. Dew Point Humidity Pressure Visibility Wind Dir Wind Speed Gust Speed Precip Events Conditions
12:15 AM 53.6 °F 41.0 °F 62% 30.13 in 10.0 mi NNW 6.9 mph - N/A   Clear
12:35 AM 53.6 °F 41.0 °F 62% 30.12 in 10.0 mi North 6.9 mph - N/A   Clear
12:55 AM 53.6 °F 41.0 °F 62% 30.12 in 10.0 mi NW 6.9 mph - N/A   Clear
1:15 AM 53.6 °F 41.0 °F 62% 30.11 in 10.0 mi NNW 9.2 mph - N/A   Clear
1:35 AM 53.6 °F 41.0 °F 62% 30.10 in 10.0 mi Calm Calm - N/A   Clear
1:55 AM 53.6 °F 41.0 °F 62% 30.10 in 10.0 mi NNE 5.8 mph - N/A   Clear
2:15 AM 53.6 °F 42.8 °F 67% 30.10 in 10.0 mi North 5.8 mph - N/A   Clear
2:35 AM 53.6 °F 42.8 °F 67% 30.10 in 10.0 mi NNW 6.9 mph - N/A   Clear
2:55 AM 53.6 °F 42.8 °F 67% 30.10 in 10.0 mi NNW 8.1 mph - N/A   Clear
3:15 AM 53.6 °F 41.0 °F 62% 30.08 in 10.0 mi North 6.9 mph - N/A   Clear
3:55 AM 53.6 °F 42.8 °F 67% 30.07 in 10.0 mi Calm Calm - N/A   Clear
4:15 AM 53.6 °F 42.8 °F 67% 30.06 in 10.0 mi Calm Calm - N/A   Clear
4:35 AM 55.4 °F 44.6 °F 67% 30.05 in 10.0 mi Calm Calm - N/A   Clear
4:55 AM 53.6 °F 44.6 °F 72% 30.06 in 10.0 mi NNW 4.6 mph - N/A   Clear
5:15 AM 53.6 °F 44.6 °F 72% 30.08 in 10.0 mi Calm Calm - N/A   Clear
5:35 AM 53.6 °F 44.6 °F 72% 30.09 in 10.0 mi NW 5.8 mph - N/A   Clear
5:55 AM 53.6 °F 44.6 °F 72% 30.07 in 10.0 mi North 6.9 mph - N/A   Clear
6:15 AM 53.6 °F 44.6 °F 72% 30.07 in 10.0 mi North 5.8 mph - N/A   Clear
6:35 AM 55.4 °F 44.6 °F 67% 30.07 in 10.0 mi North 5.8 mph - N/A   Clear
6:55 AM 55.4 °F 42.8 °F 63% 30.07 in 10.0 mi NNE 5.8 mph - N/A   Clear
7:15 AM 55.4 °F 42.8 °F 63% 30.06 in 10.0 mi NNE 6.9 mph - N/A   Clear
7:35 AM 55.4 °F 42.8 °F 63% 30.07 in 10.0 mi NNE 8.1 mph - N/A   Clear
7:55 AM 55.4 °F 42.8 °F 63% 30.07 in 10.0 mi North 5.8 mph - N/A   Clear
8:15 AM 55.4 °F 42.8 °F 63% 30.08 in 10.0 mi NNE 6.9 mph - N/A   Clear
8:35 AM 55.4 °F 44.6 °F 67% 30.08 in 10.0 mi NNE 4.6 mph - N/A   Clear
8:55 AM 55.4 °F 44.6 °F 67% 30.09 in 10.0 mi NE 6.9 mph - N/A   Clear
9:15 AM 55.4 °F 44.6 °F 67% 30.08 in 10.0 mi NNE 8.1 mph - N/A   Clear
9:35 AM 57.2 °F 44.6 °F 63% 30.10 in 10.0 mi NE 3.5 mph - N/A   Clear
9:55 AM 57.2 °F 44.6 °F 63% 30.09 in 10.0 mi NE 8.1 mph - N/A   Clear
10:15 AM 57.2 °F 46.4 °F 67% 30.10 in 10.0 mi NE 5.8 mph - N/A   Clear
10:35 AM 59.0 °F 46.4 °F 63% 30.10 in 10.0 mi ENE 6.9 mph - N/A   Clear
10:55 AM 59.0 °F 46.4 °F 63% 30.10 in 10.0 mi Calm Calm - N/A   Clear
11:15 AM 60.8 °F 46.4 °F 59% 30.08 in 10.0 mi ENE 6.9 mph - N/A   Clear
11:35 AM 62.6 °F 46.4 °F 55% 30.08 in 10.0 mi Calm Calm - N/A   Clear
11:55 AM 62.6 °F 44.6 °F 52% 30.07 in 10.0 mi NNE 6.9 mph - N/A   Clear
12:15 PM 64.4 °F 46.4 °F 52% 30.06 in 10.0 mi NE 6.9 mph - N/A   Clear
12:35 PM 66.2 °F 44.6 °F 46% 30.05 in 10.0 mi ENE 5.8 mph - N/A   Clear
12:55 PM 66.2 °F 44.6 °F 46% 30.04 in 10.0 mi NNE 8.1 mph - N/A   Clear
1:35 PM 68.0 °F 44.6 °F 43% 30.03 in 10.0 mi Calm Calm - N/A   Clear
1:55 PM 68.0 °F 44.6 °F 43% 30.02 in 10.0 mi Calm Calm - N/A   Clear
2:15 PM 71.6 °F 44.6 °F 38% 30.00 in 10.0 mi NE 3.5 mph - N/A   Clear
2:35 PM 71.6 °F 42.8 °F 35% 29.99 in 10.0 mi East 3.5 mph - N/A   Clear
2:55 PM 71.6 °F 39.2 °F 31% 29.98 in 10.0 mi East 4.6 mph - N/A   Clear
3:15 PM 73.4 °F 41.0 °F 31% 29.97 in 10.0 mi East 4.6 mph - N/A   Clear
3:35 PM 73.4 °F 41.0 °F 31% 29.96 in 10.0 mi Calm Calm - N/A   Clear
3:55 PM 73.4 °F 37.4 °F 27% 29.96 in 9.0 mi East 3.5 mph - N/A   Clear
4:15 PM 75.2 °F 37.4 °F 25% 29.96 in 10.0 mi Calm Calm - N/A   Clear
4:35 PM 75.2 °F 35.6 °F 24% 29.95 in 10.0 mi East 5.8 mph - N/A   Clear
4:55 PM 75.2 °F 35.6 °F 24% 29.94 in 10.0 mi ESE 6.9 mph - N/A   Clear
5:15 PM 75.2 °F 35.6 °F 24% 29.94 in 10.0 mi Calm Calm - N/A   Clear
5:35 PM 73.4 °F 32.0 °F 22% 29.93 in 10.0 mi Calm Calm - N/A   Clear
5:55 PM 73.4 °F 35.6 °F 25% 29.93 in 10.0 mi ESE 8.1 mph - N/A   Clear
6:15 PM 71.6 °F 35.6 °F 27% 29.93 in 10.0 mi ESE 6.9 mph - N/A   Clear
6:35 PM 71.6 °F 37.4 °F 29% 29.93 in 10.0 mi East 5.8 mph - N/A   Clear
6:55 PM 68.0 °F 39.2 °F 35% 29.93 in 10.0 mi East 3.5 mph - N/A   Clear
7:15 PM 66.2 °F 39.2 °F 37% 29.94 in 10.0 mi Calm Calm - N/A   Clear
7:35 PM 66.2 °F 39.2 °F 37% 29.94 in 10.0 mi Calm Calm - N/A   Clear
7:55 PM 64.4 °F 39.2 °F 40% 29.95 in 10.0 mi Calm Calm - N/A   Clear
8:15 PM 64.4 °F 39.2 °F 40% 29.95 in 10.0 mi Calm Calm - N/A   Clear
8:35 PM 60.8 °F 44.6 °F 55% 29.96 in 10.0 mi Calm Calm - N/A   Clear
8:55 PM 59.0 °F 41.0 °F 51% 29.96 in 10.0 mi Calm Calm - N/A   Clear
9:15 PM 62.6 °F 41.0 °F 45% 29.96 in 10.0 mi Calm Calm - N/A   Clear
9:35 PM 62.6 °F 41.0 °F 45% 29.95 in 10.0 mi NE 5.8 mph - N/A   Clear
9:55 PM 57.2 °F 41.0 °F 55% 29.95 in 10.0 mi Calm Calm - N/A   Clear
10:15 PM 59.0 °F 41.0 °F 51% 29.95 in 10.0 mi ENE 5.8 mph - N/A   Partly Cloudy
10:35 PM 57.2 °F 42.8 °F 59% 29.94 in 10.0 mi ENE 4.6 mph - N/A   Clear
10:55 PM 57.2 °F 42.8 °F 59% 29.95 in 10.0 mi Calm Calm - N/A   Partly Cloudy
11:15 PM 55.4 °F 41.0 °F 58% 29.94 in 10.0 mi NE 6.9 mph - N/A   Clear
11:35 PM 55.4 °F 42.8 °F 63% 29.94 in 10.0 mi East 3.5 mph - N/A   Clear
11:55 PM 55.4 °F 42.8 °F 63% 29.94 in 10.0 mi Calm Calm - N/A   Clear